RYR9KV LFML-LIRF

Flight info

Callsign RYR9KV
Flight time 0h 55m
Altitude 27000
Route NASIK6S NASIK P856 RAPED DCT RAPUR DCT RATAP DCT BTA DCT MOULE DCT XOPTA DCT ELB DCT ELKAP ELKAP3A
Aircraft B38M/M-SDE1FGHILORVWXY/HB1

Departure

Time 2026-05-04 14:50
Airport Marseille Provence Airport (LFML)

Arrival

Time 2026-05-04 15:45
Airport Rome–Fiumicino Leonardo da Vinci International Airport (LIRF)
Time Latitude Longitude Altitude Speed Heading
2026-05-04 14:20 43.44164 5.21757 40 ft 0 kts 88°
2026-05-04 14:35 43.44164 5.21756 40 ft 0 kts 88°
2026-05-04 14:42 43.44163 5.21756 40 ft 0 kts 88°
2026-05-04 14:42 43.44164 5.21756 40 ft 0 kts 88°
2026-05-04 14:43 43.44163 5.21756 40 ft 0 kts 88°
2026-05-04 14:44 43.44164 5.21756 40 ft 0 kts 88°
2026-05-04 14:45 43.44164 5.21757 40 ft 0 kts 88°
2026-05-04 14:45 43.44164 5.21767 38 ft 2 kts 90°
2026-05-04 14:45 43.44162 5.21779 39 ft 0 kts 118°
2026-05-04 14:46 43.44145 5.21802 39 ft 7 kts 149°
2026-05-04 14:46 43.44093 5.21783 40 ft 9 kts 218°
2026-05-04 14:46 43.44046 5.21721 40 ft 10 kts 224°
2026-05-04 14:46 43.43970 5.21621 40 ft 19 kts 224°
2026-05-04 14:47 43.43928 5.21492 40 ft 15 kts 295°
2026-05-04 14:47 43.43997 5.21379 40 ft 16 kts 314°
2026-05-04 14:47 43.44093 5.21243 40 ft 23 kts 313°
2026-05-04 14:47 43.44169 5.21132 39 ft 3 kts 303°
2026-05-04 14:48 43.44169 5.21093 39 ft 6 kts 250°
2026-05-04 14:48 43.44141 5.21022 39 ft 10 kts 240°
2026-05-04 14:48 43.44105 5.20936 36 ft 6 kts 232°
2026-05-04 14:48 43.44093 5.20929 37 ft 2 kts 191°
2026-05-04 14:49 43.44064 5.20947 35 ft 8 kts 141°
2026-05-04 14:49 43.43958 5.21097 39 ft 50 kts 134°
2026-05-04 14:49 43.43549 5.21680 37 ft 116 kts 135°
2026-05-04 14:49 43.42857 5.22624 210 ft 153 kts 134°
2026-05-04 14:50 43.42153 5.23672 1104 ft 142 kts 127°
2026-05-04 14:50 43.41755 5.24872 1980 ft 141 kts 100°
2026-05-04 14:50 43.41840 5.26257 2687 ft 154 kts 85°
2026-05-04 14:50 43.42205 5.27674 3467 ft 159 kts 77°
2026-05-04 14:51 43.42513 5.29117 4198 ft 160 kts 90°
2026-05-04 14:51 43.42650 5.30727 4579 ft 179 kts 87°
2026-05-04 14:51 43.42796 5.31875 4726 ft 189 kts 87°
2026-05-04 14:51 43.43033 5.33739 4832 ft 206 kts 86°
2026-05-04 14:52 43.43141 5.35764 4908 ft 220 kts 97°
2026-05-04 14:52 43.43045 5.37916 4881 ft 230 kts 99°
2026-05-04 14:52 43.42938 5.40181 4892 ft 248 kts 98°
2026-05-04 14:52 43.42826 5.42581 4895 ft 254 kts 98°
2026-05-04 14:53 43.42708 5.45020 4942 ft 257 kts 99°
2026-05-04 14:53 43.42586 5.47472 5004 ft 256 kts 98°
2026-05-04 14:53 43.42462 5.49938 5124 ft 261 kts 98°
2026-05-04 14:53 43.42341 5.52438 5929 ft 262 kts 98°
2026-05-04 14:54 43.42217 5.54957 6864 ft 271 kts 99°
2026-05-04 14:54 43.42085 5.57594 7751 ft 278 kts 97°
2026-05-04 14:54 43.41953 5.60254 8680 ft 285 kts 99°
2026-05-04 14:54 43.41815 5.63015 9571 ft 292 kts 98°
2026-05-04 14:55 43.41672 5.65827 10404 ft 301 kts 97°
2026-05-04 14:55 43.41520 5.68804 10901 ft 320 kts 97°
2026-05-04 14:55 43.41362 5.71939 11478 ft 336 kts 98°
2026-05-04 14:55 43.41417 5.75233 12302 ft 350 kts 89°
2026-05-04 14:56 43.41569 5.78587 13082 ft 355 kts 90°
2026-05-04 14:56 43.41698 5.82016 13944 ft 360 kts 91°
2026-05-04 14:56 43.41817 5.85490 14653 ft 367 kts 90°
2026-05-04 14:56 43.41932 5.88978 15473 ft 369 kts 90°
2026-05-04 14:57 43.42044 5.92483 16230 ft 374 kts 91°
2026-05-04 14:57 43.42158 5.96092 16978 ft 379 kts 91°
2026-05-04 14:57 43.42272 5.99738 17752 ft 382 kts 91°
2026-05-04 14:57 43.42385 6.03417 18472 ft 387 kts 91°
2026-05-04 14:58 43.42499 6.07140 19072 ft 392 kts 90°
2026-05-04 14:58 43.42614 6.10911 19687 ft 396 kts 90°
2026-05-04 14:58 43.42728 6.14722 20305 ft 400 kts 90°
2026-05-04 14:58 43.42842 6.18567 20876 ft 405 kts 90°
2026-05-04 14:59 43.42955 6.22431 21473 ft 409 kts 90°
2026-05-04 14:59 43.43052 6.26360 22033 ft 413 kts 94°
2026-05-04 14:59 43.42414 6.34216 23174 ft 419 kts 99°
2026-05-04 15:00 43.42054 6.38226 23734 ft 424 kts 99°
2026-05-04 15:00 43.41690 6.42270 24211 ft 428 kts 100°
2026-05-04 15:00 43.41320 6.46342 24706 ft 431 kts 100°
2026-05-04 15:01 43.40567 6.54602 25562 ft 439 kts 100°
2026-05-04 15:01 43.40185 6.58766 25999 ft 442 kts 100°
2026-05-04 15:01 43.39798 6.62971 26453 ft 445 kts 100°
2026-05-04 15:01 43.39404 6.67223 26861 ft 450 kts 100°
2026-05-04 15:02 43.39003 6.71541 27043 ft 457 kts 101°
2026-05-04 15:02 43.38596 6.75915 27039 ft 466 kts 101°
2026-05-04 15:02 43.38181 6.80348 27045 ft 468 kts 101°
2026-05-04 15:02 43.37761 6.84810 27050 ft 469 kts 100°
2026-05-04 15:03 43.37283 6.89175 27033 ft 468 kts 107°
2026-05-04 15:03 43.36261 6.93371 27055 ft 465 kts 114°
2026-05-04 15:03 43.35180 6.97573 27036 ft 466 kts 113°
2026-05-04 15:03 43.34097 7.01771 27039 ft 466 kts 113°
2026-05-04 15:04 43.33007 7.05958 27039 ft 466 kts 113°
2026-05-04 15:04 43.31913 7.10147 27046 ft 466 kts 113°
2026-05-04 15:04 43.30817 7.14335 27037 ft 466 kts 113°
2026-05-04 15:04 43.29721 7.18512 27037 ft 466 kts 113°
2026-05-04 15:05 43.28628 7.22675 27051 ft 465 kts 114°
2026-05-04 15:05 43.27526 7.26861 27026 ft 465 kts 114°
2026-05-04 15:05 43.26426 7.31032 27033 ft 465 kts 114°
2026-05-04 15:05 43.25322 7.35212 27032 ft 465 kts 114°
2026-05-04 15:06 43.24220 7.39378 27036 ft 465 kts 114°
2026-05-04 15:06 43.23129 7.43497 27035 ft 465 kts 114°
2026-05-04 15:06 43.22025 7.47656 27031 ft 465 kts 114°
2026-05-04 15:07 43.19815 7.55958 27043 ft 465 kts 114°
2026-05-04 15:07 43.18705 7.60121 27022 ft 465 kts 114°
2026-05-04 15:07 43.17586 7.64305 27035 ft 466 kts 114°
2026-05-04 15:07 43.16472 7.68467 27023 ft 465 kts 114°
2026-05-04 15:08 43.15355 7.72630 27027 ft 465 kts 114°
2026-05-04 15:08 43.14237 7.76793 27040 ft 465 kts 114°
2026-05-04 15:08 43.13118 7.80949 27033 ft 465 kts 114°
2026-05-04 15:08 43.11998 7.85103 27034 ft 465 kts 114°
2026-05-04 15:09 43.10882 7.89237 27030 ft 465 kts 114°
2026-05-04 15:09 43.09759 7.93386 27028 ft 465 kts 114°
2026-05-04 15:09 43.08632 7.97548 27013 ft 465 kts 114°
2026-05-04 15:10 43.06388 8.05806 27031 ft 466 kts 114°
2026-05-04 15:10 43.05258 8.09956 27027 ft 466 kts 114°
2026-05-04 15:10 43.02987 8.18272 27028 ft 466 kts 114°
2026-05-04 15:11 43.01857 8.22400 27027 ft 466 kts 114°
2026-05-04 15:11 43.00720 8.26549 27028 ft 466 kts 114°
2026-05-04 15:11 42.99579 8.30702 27028 ft 466 kts 114°
2026-05-04 15:11 42.98439 8.34846 27008 ft 466 kts 114°
2026-05-04 15:12 42.97294 8.39002 27016 ft 468 kts 114°
2026-05-04 15:12 42.96144 8.43168 27023 ft 468 kts 114°
2026-05-04 15:12 42.94997 8.47313 27026 ft 468 kts 114°
2026-05-04 15:12 42.93852 8.51448 27021 ft 468 kts 114°
2026-05-04 15:13 42.92693 8.55631 27021 ft 468 kts 114°
2026-05-04 15:13 42.91540 8.59783 27020 ft 468 kts 114°
2026-05-04 15:13 42.90384 8.63941 27020 ft 468 kts 114°
2026-05-04 15:13 42.89163 8.68051 27010 ft 465 kts 120°
2026-05-04 15:14 42.87642 8.71937 27010 ft 464 kts 122°
2026-05-04 15:14 42.86130 8.75777 27015 ft 465 kts 122°
2026-05-04 15:14 42.84592 8.79660 27029 ft 466 kts 122°
2026-05-04 15:14 42.83063 8.83510 27031 ft 466 kts 122°
2026-05-04 15:15 42.81519 8.87391 27018 ft 466 kts 122°
2026-05-04 15:15 42.79974 8.91270 27032 ft 466 kts 122°
2026-05-04 15:15 42.78425 8.95155 27036 ft 466 kts 122°
2026-05-04 15:16 42.75325 9.02910 27028 ft 465 kts 122°
2026-05-04 15:16 42.73777 9.06775 27032 ft 466 kts 122°
2026-05-04 15:16 42.70697 9.14455 27033 ft 468 kts 122°
2026-05-04 15:17 42.69133 9.18346 27039 ft 468 kts 122°
2026-05-04 15:17 42.66007 9.26110 27042 ft 468 kts 122°
2026-05-04 15:17 42.64440 9.29996 27047 ft 469 kts 122°
2026-05-04 15:18 42.62867 9.33888 27054 ft 469 kts 122°
2026-05-04 15:18 42.61299 9.37764 27075 ft 469 kts 122°
2026-05-04 15:18 42.59735 9.41653 27071 ft 470 kts 120°
2026-05-04 15:19 42.58260 9.50243 27066 ft 480 kts 89°
2026-05-04 15:19 42.58724 9.54729 27082 ft 481 kts 77°
2026-05-04 15:19 42.60183 9.63606 27073 ft 482 kts 77°
2026-05-04 15:20 42.60941 9.68051 27079 ft 482 kts 77°
2026-05-04 15:20 42.61703 9.72477 27085 ft 480 kts 76°
2026-05-04 15:20 42.62457 9.76859 27072 ft 479 kts 76°
2026-05-04 15:20 42.63208 9.81230 27068 ft 479 kts 77°
2026-05-04 15:21 42.63962 9.85631 27059 ft 479 kts 76°
2026-05-04 15:21 42.64717 9.90037 27061 ft 478 kts 76°
2026-05-04 15:21 42.66220 9.98852 27072 ft 478 kts 76°
2026-05-04 15:22 42.66969 10.03260 27073 ft 478 kts 76°
2026-05-04 15:22 42.67714 10.07651 27072 ft 478 kts 76°
2026-05-04 15:22 42.69200 10.16451 27073 ft 478 kts 76°
2026-05-04 15:23 42.69943 10.20870 27060 ft 478 kts 76°
2026-05-04 15:23 42.70685 10.25289 27073 ft 478 kts 76°
2026-05-04 15:23 42.71426 10.29717 27082 ft 478 kts 76°
2026-05-04 15:23 42.72153 10.34066 27086 ft 478 kts 76°
2026-05-04 15:24 42.72881 10.42786 27113 ft 450 kts 94°
2026-05-04 15:24 42.72609 10.51248 27096 ft 445 kts 93°
2026-05-04 15:25 42.72455 10.55456 27094 ft 445 kts 93°
2026-05-04 15:25 42.72293 10.59656 27100 ft 445 kts 93°
2026-05-04 15:25 42.71830 10.63756 27087 ft 442 kts 109°
2026-05-04 15:26 42.68990 10.71066 26780 ft 436 kts 123°
2026-05-04 15:26 42.67413 10.74604 26254 ft 439 kts 124°
2026-05-04 15:26 42.64230 10.81611 25271 ft 434 kts 124°
2026-05-04 15:27 42.62639 10.85079 24787 ft 431 kts 124°
2026-05-04 15:27 42.59481 10.91945 23826 ft 426 kts 123°
2026-05-04 15:28 42.56418 10.98585 22796 ft 402 kts 123°
2026-05-04 15:28 42.54961 11.01738 22358 ft 389 kts 124°
2026-05-04 15:28 42.52176 11.07968 20924 ft 389 kts 123°
2026-05-04 15:29 42.50772 11.11109 20163 ft 390 kts 123°
2026-05-04 15:30 42.45233 11.23464 17198 ft 376 kts 124°
2026-05-04 15:30 42.41220 11.32381 15030 ft 364 kts 124°
2026-05-04 15:31 42.38616 11.38151 13669 ft 356 kts 124°
2026-05-04 15:31 42.37766 11.40031 13185 ft 353 kts 124°
2026-05-04 15:32 42.33585 11.49267 10994 ft 335 kts 124°
2026-05-04 15:32 42.31249 11.54417 10361 ft 307 kts 124°
2026-05-04 15:33 42.29468 11.58336 10144 ft 283 kts 124°
2026-05-04 15:34 42.26344 11.65194 9259 ft 291 kts 124°
2026-05-04 15:34 42.25284 11.67519 8959 ft 291 kts 124°
2026-05-04 15:34 42.23176 11.72136 8365 ft 286 kts 124°
2026-05-04 15:35 42.21186 11.76490 7804 ft 263 kts 125°
2026-05-04 15:35 42.20231 11.78575 7543 ft 261 kts 125°
2026-05-04 15:35 42.19258 11.80699 7288 ft 270 kts 124°
2026-05-04 15:36 42.17268 11.85039 6758 ft 271 kts 124°
2026-05-04 15:36 42.16284 11.87182 6454 ft 269 kts 124°
2026-05-04 15:36 42.15294 11.89338 6190 ft 269 kts 124°
2026-05-04 15:37 42.14315 11.91467 5944 ft 269 kts 125°
2026-05-04 15:37 42.13343 11.93581 5663 ft 267 kts 124°
2026-05-04 15:37 42.12354 11.95729 5365 ft 265 kts 124°
2026-05-04 15:37 42.11402 11.97795 5067 ft 260 kts 124°
2026-05-04 15:38 42.10459 11.99842 4915 ft 252 kts 125°
2026-05-04 15:38 42.09550 12.01813 4792 ft 242 kts 125°
2026-05-04 15:38 42.08673 12.03714 4692 ft 236 kts 124°
2026-05-04 15:38 42.07822 12.05556 4583 ft 234 kts 124°
2026-05-04 15:39 42.06963 12.07417 4517 ft 234 kts 124°
2026-05-04 15:39 42.06099 12.09282 4351 ft 235 kts 125°
2026-05-04 15:39 42.04372 12.13013 4092 ft 235 kts 124°
2026-05-04 15:40 42.03515 12.14863 3962 ft 234 kts 124°
2026-05-04 15:40 42.02654 12.16720 3810 ft 234 kts 124°
2026-05-04 15:40 42.01673 12.18474 3534 ft 233 kts 140°
2026-05-04 15:40 42.00316 12.19582 3193 ft 230 kts 159°
2026-05-04 15:41 41.98794 12.20239 2943 ft 228 kts 165°
2026-05-04 15:41 41.97275 12.20840 2684 ft 226 kts 163°
2026-05-04 15:41 41.95803 12.21457 2378 ft 221 kts 163°
2026-05-04 15:41 41.94383 12.22056 2070 ft 203 kts 164°
2026-05-04 15:42 41.93116 12.22586 1823 ft 180 kts 164°
2026-05-04 15:42 41.91983 12.23061 1583 ft 161 kts 164°
2026-05-04 15:42 41.90956 12.23495 1415 ft 151 kts 164°
2026-05-04 15:42 41.89991 12.23896 1206 ft 139 kts 164°
2026-05-04 15:43 41.89072 12.24285 1023 ft 137 kts 165°
2026-05-04 15:43 41.88155 12.24665 805 ft 139 kts 161°
2026-05-04 15:43 41.87246 12.25052 615 ft 139 kts 166°
2026-05-04 15:43 41.86321 12.25443 472 ft 137 kts 163°
2026-05-04 15:44 41.85427 12.25821 265 ft 131 kts 166°
2026-05-04 15:44 41.84575 12.26168 68 ft 130 kts 164°
2026-05-04 15:44 41.83731 12.26511 20 ft 116 kts 162°
2026-05-04 15:44 41.83058 12.26797 19 ft 85 kts 162°
2026-05-04 15:45 41.82613 12.26981 17 ft 53 kts 162°
2026-05-04 15:45 41.82303 12.27109 14 ft 40 kts 167°
2026-05-04 15:45 41.82040 12.27133 19 ft 38 kts 191°
2026-05-04 15:45 41.81832 12.27069 17 ft 28 kts 192°
2026-05-04 15:46 41.81637 12.27067 17 ft 29 kts 164°
2026-05-04 15:46 41.81441 12.27149 17 ft 30 kts 162°
2026-05-04 15:46 41.81236 12.27233 17 ft 32 kts 162°
2026-05-04 15:46 41.81020 12.27326 20 ft 33 kts 163°
2026-05-04 15:47 41.80819 12.27330 17 ft 29 kts 189°
2026-05-04 15:47 41.80665 12.27240 17 ft 25 kts 237°
2026-05-04 15:47 41.80600 12.27015 18 ft 27 kts 250°
2026-05-04 15:47 41.80533 12.26776 17 ft 23 kts 249°
2026-05-04 15:48 41.80476 12.26568 17 ft 25 kts 251°
2026-05-04 15:48 41.80427 12.26407 17 ft 15 kts 231°
2026-05-04 15:48 41.80198 12.26395 17 ft 20 kts 201°
2026-05-04 15:49 41.80066 12.26312 17 ft 22 kts 205°
2026-05-04 15:49 41.79918 12.26221 17 ft 24 kts 205°
2026-05-04 15:49 41.79815 12.26159 17 ft 13 kts 205°
2026-05-04 15:49 41.79766 12.26085 17 ft 12 kts 269°
2026-05-04 15:50 41.79801 12.25971 20 ft 15 kts 295°
2026-05-04 15:50 41.79836 12.25869 18 ft 8 kts 295°
2026-05-04 15:50 41.79813 12.25812 18 ft 9 kts 208°
2026-05-04 15:50 41.79749 12.25770 17 ft 12 kts 206°
2026-05-04 15:51 41.79669 12.25718 17 ft 13 kts 206°
2026-05-04 15:51 41.79612 12.25680 18 ft 3 kts 206°
2026-05-04 15:51 41.79591 12.25676 17 ft 3 kts 162°
2026-05-04 15:51 41.79578 12.25694 19 ft 3 kts 133°
2026-05-04 15:52 41.79569 12.25711 17 ft 2 kts 120°
2026-05-04 15:52 41.79565 12.25721 17 ft 1 kts 115°
2026-05-04 15:52 41.79564 12.25724 17 ft 1 kts 115°
2026-05-04 15:52 41.79562 12.25731 17 ft 0 kts 115°